Погода в Поросозере

Россия / Республика Карелия     62°43′08″N   32°43′55″E
В апреле 2022 года жителям России запретили посещать сайт meteo.paraplan.net по решению Генеральной прокуратуры. Аудитория сайта уменьшилась в 10 раз. Владельцы сайта не видят смысла в поддержке погодного сервера в таких условиях. Сайт будет закрыт в октябре.
темп.,
°C
ветер,
м/с
пор.,
м/с
влажн.,
%
обл.,
%
осадки,
мм/ч
давл.,
гПа
погр.,
м
30 сентября, пт
пт3000:00+2вюв3798100 0.4 1009673
03:00+3вюв2598100 1.5 1009719
06:00+4юв2599100 1.1 1009520
09:00+4вюв249899 1.1 1009226
12:00+6юв2393100 0.1 1009393
15:00+5вюв1397100 1.5 1009211
18:00+6в1499100 2.7 1009206
21:00+6з1399100 3.1 1009179
1 октября, сб
сб100:00+5сз1397100 0.0 1010106
03:00+2з119543 0.0 101210
06:00+2ю219440 0.0 101215
09:00+4ююз2492100 0.0 1012161
12:00+7юз269098 0.3 1012512
15:00+8зюз357720 0.5 1011873
18:00+5з22915 0.2 101230
21:00+2з119367 0.2 101210
2 октября, вс
вс200:00+2з119257 0.0 101210
03:00+1сз11925 0.0 101210
06:00+1вюв00925 0.0 101210
09:00+3ссв0085100 0.0 101149
12:00+7сз0172100 0.0 1011352
15:00+8сз1169100 0.0 1011480
18:00+6зсз118380 0.0 101111
21:00+4зсз119361 0.0 101216
3 октября, пн
пн300:00+4з119388 0.0 101212
03:00+5ссз1192100 0.0 101215
06:00+5ссв119197 0.0 101311
09:00+6всв1387100 0.0 1013134
12:00+8всв2481100 0.0 1013387
15:00+8св3680100 0.0 1012624
18:00+7св41187100 0.0 1011722
21:00+7св61380100 0.0 1009979
4 октября, вт
вт400:00+5св71677100 0.2 10061175
03:00+5св81792100 4.4 10021056
06:00+5св71494100 3.9 1000889
09:00+5св61497100 4.8 999690
12:00+8вюв41086100 0.8 10001129
15:00+4юв4896100 1.4 1001730
18:00+4вюв3797100 1.1 1002826
21:00+4всв1598100 2.1 1002803